Wetterdaten: aktuell Montag, 17.02.2020 05:37
Datum Zeit Temp. I. Temp. 2m Feuchte I. Luftf.2m Luftdruck Regen Wind Richtung Richtung Sonnenschein ET UV Solar Taupunkt Windchill Windben
17.02.2020 05:37 22,1 C 0,2 C 56 % 96 % 1020,6 hPa 0,0 l/m 3,2 km/h (1 Bft) S-SW 202 0 min 0,000 mm 0,0 UV-I 0 W/m -0,4 C 0,2 C 3,2 km/h (1 Bft)
17.02.2020 05:36 22,0 C 0,3 C 56 % 96 % 1020,6 hPa 0,0 l/m 1,6 km/h (1 Bft) S-SW 202 0 min 0,000 mm 0,0 UV-I 0 W/m -0,3 C 0,3 C 3,2 km/h (1 Bft)
17.02.2020 05:35 22,0 C 0,3 C 56 % 96 % 1020,7 hPa 0,0 l/m 0,0 km/h (0 Bft) S-SW 202 0 min 0,000 mm 0,0 UV-I 0 W/m -0,3 C 0,3 C 1,6 km/h (1 Bft)
17.02.2020 05:34 22,0 C 0,3 C 56 % 96 % 1020,6 hPa 0,0 l/m 1,6 km/h (1 Bft) S-SW 202 0 min 0,000 mm 0,0 UV-I 0 W/m -0,3 C 0,3 C 1,6 km/h (1 Bft)
17.02.2020 05:33 22,0 C 0,3 C 56 % 96 % 1020,7 hPa 0,0 l/m 1,6 km/h (1 Bft) S-SW 202 0 min 0,000 mm 0,0 UV-I 0 W/m -0,3 C 0,3 C 3,2 km/h (1 Bft)
17.02.2020 05:32 22,0 C 0,3 C 56 % 96 % 1020,7 hPa 0,0 l/m 1,6 km/h (1 Bft) S-SW 202 0 min 0,000 mm 0,0 UV-I 0 W/m -0,3 C 0,3 C 3,2 km/h (1 Bft)
17.02.2020 05:31 22,0 C 0,3 C 56 % 96 % 1020,7 hPa 0,0 l/m 1,6 km/h (1 Bft) S-SW 202 0 min 0,000 mm 0,0 UV-I 0 W/m -0,3 C 0,3 C 3,2 km/h (1 Bft)
17.02.2020 05:30 22,0 C 0,3 C 55 % 96 % 1020,6 hPa 0,0 l/m 1,6 km/h (1 Bft) S-SW 202 0 min 0,000 mm 0,0 UV-I 0 W/m -0,3 C 0,3 C 3,2 km/h (1 Bft)
17.02.2020 05:29 22,0 C 0,3 C 55 % 96 % 1020,6 hPa 0,0 l/m 3,2 km/h (1 Bft) S-SW 202 0 min 0,000 mm 0,0 UV-I 0 W/m -0,3 C 0,3 C 4,8 km/h (1 Bft)
17.02.2020 05:28 22,0 C 0,3 C 55 % 96 % 1020,7 hPa 0,0 l/m 3,2 km/h (1 Bft) S 180 0 min 0,000 mm 0,0 UV-I 0 W/m -0,3 C 0,3 C 4,8 km/h (1 Bft)
17.02.2020 05:27 22,0 C 0,2 C 56 % 96 % 1020,7 hPa 0,0 l/m 1,6 km/h (1 Bft) S 180 0 min 0,000 mm 0,0 UV-I 0 W/m -0,4 C 0,2 C 3,2 km/h (1 Bft)
17.02.2020 05:26 22,0 C 0,2 C 55 % 96 % 1020,8 hPa 0,0 l/m 3,2 km/h (1 Bft) N-NW 337 0 min 0,000 mm 0,0 UV-I 0 W/m -0,4 C 0,2 C 6,4 km/h (2 Bft)
17.02.2020 05:25 22,0 C 0,3 C 56 % 96 % 1020,6 hPa 0,0 l/m 6,4 km/h (2 Bft) NW 315 0 min 0,000 mm 0,0 UV-I 0 W/m -0,3 C 0,3 C 8,0 km/h (2 Bft)
17.02.2020 05:24 22,0 C 0,3 C 56 % 96 % 1020,5 hPa 0,0 l/m 1,6 km/h (1 Bft) SW 225 0 min 0,000 mm 0,0 UV-I 0 W/m -0,3 C 0,3 C 3,2 km/h (1 Bft)
17.02.2020 05:23 22,0 C 0,2 C 55 % 96 % 1020,5 hPa 0,0 l/m 1,6 km/h (1 Bft) SW 225 0 min 0,000 mm 0,0 UV-I 0 W/m -0,4 C 0,2 C 4,8 km/h (1 Bft)
17.02.2020 05:22 22,0 C 0,2 C 55 % 96 % 1020,4 hPa 0,0 l/m 1,6 km/h (1 Bft) SW 225 0 min 0,000 mm 0,0 UV-I 0 W/m -0,4 C 0,2 C 4,8 km/h (1 Bft)
17.02.2020 05:21 22,0 C 0,2 C 55 % 96 % 1020,4 hPa 0,0 l/m 0,0 km/h (0 Bft) SW 225 0 min 0,000 mm 0,0 UV-I 0 W/m -0,4 C 0,2 C 1,6 km/h (1 Bft)
17.02.2020 05:20 22,0 C 0,2 C 56 % 96 % 1020,4 hPa 0,0 l/m 3,2 km/h (1 Bft) SW 225 0 min 0,000 mm 0,0 UV-I 0 W/m -0,4 C 0,2 C 4,8 km/h (1 Bft)
17.02.2020 05:19 22,0 C 0,2 C 55 % 96 % 1020,3 hPa 0,0 l/m 4,8 km/h (1 Bft) SW 225 0 min 0,000 mm 0,0 UV-I 0 W/m -0,4 C 0,2 C 6,4 km/h (2 Bft)
17.02.2020 05:18 22,0 C 0,2 C 55 % 96 % 1020,4 hPa 0,0 l/m 3,2 km/h (1 Bft) W-SW 247 0 min 0,000 mm 0,0 UV-I 0 W/m -0,4 C 0,2 C 4,8 km/h (1 Bft)
17.02.2020 05:17 22,0 C 0,2 C 55 % 96 % 1020,4 hPa 0,0 l/m 3,2 km/h (1 Bft) W-SW 247 0 min 0,000 mm 0,0 UV-I 0 W/m -0,4 C 0,2 C 8,0 km/h (2 Bft)
17.02.2020 05:16 22,0 C 0,2 C 55 % 96 % 1020,5 hPa 0,0 l/m 4,8 km/h (1 Bft) W-SW 247 0 min 0,000 mm 0,0 UV-I 0 W/m -0,4 C 0,2 C 8,0 km/h (2 Bft)
17.02.2020 05:15 22,0 C 0,2 C 55 % 96 % 1020,4 hPa 0,0 l/m 4,8 km/h (1 Bft) W-SW 247 0 min 0,000 mm 0,0 UV-I 0 W/m -0,4 C 0,2 C 4,8 km/h (1 Bft)
17.02.2020 05:14 22,0 C 0,1 C 55 % 96 % 1020,1 hPa 0,0 l/m 1,6 km/h (1 Bft) W-SW 247 0 min 0,000 mm 0,0 UV-I 0 W/m -0,5 C 0,1 C 4,8 km/h (1 Bft)
17.02.2020 05:13 21,9 C 0,1 C 55 % 96 % 1020,3 hPa 0,0 l/m 1,6 km/h (1 Bft) W-SW 247 0 min 0,000 mm 0,0 UV-I 0 W/m -0,5 C 0,1 C 3,2 km/h (1 Bft)
17.02.2020 05:12 22,0 C 0,1 C 55 % 96 % 1020,4 hPa 0,0 l/m 3,2 km/h (1 Bft) W-SW 247 0 min 0,000 mm 0,0 UV-I 0 W/m -0,5 C 0,1 C 4,8 km/h (1 Bft)
17.02.2020 05:11 22,0 C 0,0 C 55 % 96 % 1020,3 hPa 0,0 l/m 3,2 km/h (1 Bft) W-SW 247 0 min 0,000 mm 0,0 UV-I 0 W/m -0,6 C 0,0 C 4,8 km/h (1 Bft)
17.02.2020 05:10 22,0 C 0,0 C 55 % 96 % 1020,2 hPa 0,0 l/m 1,6 km/h (1 Bft) S-SW 202 0 min 0,000 mm 0,0 UV-I 0 W/m -0,6 C 0,0 C 3,2 km/h (1 Bft)
17.02.2020 05:09 22,0 C -0,1 C 55 % 96 % 1020,4 hPa 0,0 l/m 3,2 km/h (1 Bft) S-SW 202 0 min 0,000 mm 0,0 UV-I 0 W/m -0,7 C -0,1 C 4,8 km/h (1 Bft)
17.02.2020 05:08 22,1 C -0,1 C 55 % 96 % 1020,4 hPa 0,0 l/m 4,8 km/h (1 Bft) SW 225 0 min 0,000 mm 0,0 UV-I 0 W/m -0,7 C -0,1 C 4,8 km/h (1 Bft)
17.02.2020 05:07 22,0 C -0,2 C 55 % 96 % 1020,5 hPa 0,0 l/m 3,2 km/h (1 Bft) SW 225 0 min 0,000 mm 0,0 UV-I 0 W/m -0,8 C -0,2 C 4,8 km/h (1 Bft)
17.02.2020 05:06 22,0 C -0,3 C 55 % 96 % 1020,5 hPa 0,0 l/m 3,2 km/h (1 Bft) W-SW 247 0 min 0,000 mm 0,0 UV-I 0 W/m -0,9 C -0,3 C 4,8 km/h (1 Bft)
17.02.2020 05:05 21,9 C -0,3 C 55 % 96 % 1020,5 hPa 0,0 l/m 4,8 km/h (1 Bft) W-SW 247 0 min 0,000 mm 0,0 UV-I 0 W/m -0,9 C -0,3 C 6,4 km/h (2 Bft)
17.02.2020 05:04 22,0 C -0,3 C 55 % 96 % 1020,4 hPa 0,0 l/m 3,2 km/h (1 Bft) W-NW 292 0 min 0,000 mm 0,0 UV-I 0 W/m -0,9 C -0,3 C 4,8 km/h (1 Bft)
17.02.2020 05:03 22,0 C -0,3 C 55 % 96 % 1020,5 hPa 0,0 l/m 1,6 km/h (1 Bft) W-NW 292 0 min 0,000 mm 0,0 UV-I 0 W/m -0,9 C -0,3 C 3,2 km/h (1 Bft)
17.02.2020 05:02 22,0 C -0,3 C 55 % 96 % 1020,5 hPa 0,0 l/m 3,2 km/h (1 Bft) W-NW 292 0 min 0,000 mm 0,0 UV-I 0 W/m -0,9 C -0,3 C 4,8 km/h (1 Bft)
17.02.2020 05:01 22,0 C -0,3 C 55 % 96 % 1020,4 hPa 0,0 l/m 3,2 km/h (1 Bft) W-NW 292 0 min 0,000 mm 0,0 UV-I 0 W/m -0,9 C -0,3 C 4,8 km/h (1 Bft)
17.02.2020 05:00 22,0 C -0,3 C 55 % 96 % 1020,3 hPa 0,0 l/m 1,6 km/h (1 Bft) W-SW 247 0 min 0,000 mm 0,0 UV-I 0 W/m -0,9 C -0,3 C 3,2 km/h (1 Bft)
17.02.2020 04:59 22,1 C -0,4 C 55 % 96 % 1020,3 hPa 0,0 l/m 1,6 km/h (1 Bft) W-SW 247 0 min 0,000 mm 0,0 UV-I 0 W/m -1,0 C -0,4 C 4,8 km/h (1 Bft)
17.02.2020 04:58 22,0 C -0,4 C 55 % 96 % 1020,2 hPa 0,0 l/m 3,2 km/h (1 Bft) W-SW 247 0 min 0,000 mm 0,0 UV-I 0 W/m -1,0 C -0,4 C 3,2 km/h (1 Bft)
17.02.2020 04:57 22,0 C -0,4 C 55 % 96 % 1020,3 hPa 0,0 l/m 3,2 km/h (1 Bft) S-SW 202 0 min 0,000 mm 0,0 UV-I 0 W/m -1,0 C -0,4 C 3,2 km/h (1 Bft)
17.02.2020 04:56 22,0 C -0,5 C 55 % 96 % 1020,3 hPa 0,0 l/m 1,6 km/h (1 Bft) S-SW 202 0 min 0,000 mm 0,0 UV-I 0 W/m -1,1 C -0,5 C 3,2 km/h (1 Bft)
17.02.2020 04:55 22,0 C -0,5 C 55 % 96 % 1020,3 hPa 0,0 l/m 1,6 km/h (1 Bft) S-SW 202 0 min 0,000 mm 0,0 UV-I 0 W/m -1,1 C -0,5 C 3,2 km/h (1 Bft)
17.02.2020 04:54 22,0 C -0,6 C 55 % 96 % 1020,5 hPa 0,0 l/m 1,6 km/h (1 Bft) S-SW 202 0 min 0,000 mm 0,0 UV-I 0 W/m -1,2 C -0,6 C 1,6 km/h (1 Bft)
17.02.2020 04:53 22,0 C -0,6 C 55 % 96 % 1020,5 hPa 0,0 l/m 1,6 km/h (1 Bft) S-SW 202 0 min 0,000 mm 0,0 UV-I 0 W/m -1,2 C -0,6 C 1,6 km/h (1 Bft)
17.02.2020 04:52 22,0 C -0,6 C 55 % 96 % 1020,4 hPa 0,0 l/m 1,6 km/h (1 Bft) S-SW 202 0 min 0,000 mm 0,0 UV-I 0 W/m -1,2 C -0,6 C 1,6 km/h (1 Bft)
17.02.2020 04:51 22,0 C -0,6 C 55 % 96 % 1020,5 hPa 0,0 l/m 1,6 km/h (1 Bft) S-SW 202 0 min 0,000 mm 0,0 UV-I 0 W/m -1,2 C -0,6 C 1,6 km/h (1 Bft)
17.02.2020 04:50 22,0 C -0,6 C 55 % 96 % 1020,5 hPa 0,0 l/m 0,0 km/h (0 Bft) N 0 0 min 0,000 mm 0,0 UV-I 0 W/m -1,2 C -0,6 C 0,0 km/h (0 Bft)
17.02.2020 04:49 22,1 C -0,6 C 55 % 96 % 1020,5 hPa 0,0 l/m 0,0 km/h (0 Bft) N 0 0 min 0,000 mm 0,0 UV-I 0 W/m -1,2 C -0,6 C 0,0 km/h (0 Bft)
17.02.2020 04:48 22,0 C -0,6 C 55 % 96 % 1020,6 hPa 0,0 l/m 0,0 km/h (0 Bft) S-SW 202 0 min 0,000 mm 0,0 UV-I 0 W/m -1,2 C -0,6 C 1,6 km/h (1 Bft)
17.02.2020 04:47 22,0 C -0,6 C 55 % 96 % 1020,6 hPa 0,0 l/m 0,0 km/h (0 Bft) S-SW 202 0 min 0,000 mm 0,0 UV-I 0 W/m -1,2 C -0,6 C 1,6 km/h (1 Bft)
17.02.2020 04:46 22,0 C -0,6 C 55 % 96 % 1020,6 hPa 0,0 l/m 0,0 km/h (0 Bft) N 0 0 min 0,000 mm 0,0 UV-I 0 W/m -1,2 C -0,6 C 0,0 km/h (0 Bft)
17.02.2020 04:45 22,0 C -0,6 C 55 % 96 % 1020,6 hPa 0,0 l/m 0,0 km/h (0 Bft) N 0 0 min 0,000 mm 0,0 UV-I 0 W/m -1,2 C -0,6 C 0,0 km/h (0 Bft)
17.02.2020 04:44 22,0 C -0,7 C 55 % 96 % 1020,5 hPa 0,0 l/m 0,0 km/h (0 Bft) N 0 0 min 0,000 mm 0,0 UV-I 0 W/m -1,3 C -0,7 C 0,0 km/h (0 Bft)
17.02.2020 04:43 22,0 C -0,6 C 55 % 96 % 1020,5 hPa 0,0 l/m 1,6 km/h (1 Bft) S-SW 202 0 min 0,000 mm 0,0 UV-I 0 W/m -1,2 C -0,6 C 4,8 km/h (1 Bft)
17.02.2020 04:42 22,0 C -0,7 C 55 % 96 % 1020,5 hPa 0,0 l/m 3,2 km/h (1 Bft) S-SW 202 0 min 0,000 mm 0,0 UV-I 0 W/m -1,3 C -0,7 C 4,8 km/h (1 Bft)
17.02.2020 04:41 22,0 C -0,7 C 55 % 96 % 1020,7 hPa 0,0 l/m 1,6 km/h (1 Bft) N 360 0 min 0,000 mm 0,0 UV-I 0 W/m -1,3 C -0,7 C 3,2 km/h (1 Bft)
17.02.2020 04:40 22,0 C -0,7 C 55 % 96 % 1020,6 hPa 0,0 l/m 3,2 km/h (1 Bft) N 360 0 min 0,000 mm 0,0 UV-I 0 W/m -1,3 C -0,7 C 4,8 km/h (1 Bft)
17.02.2020 04:39 22,1 C -0,7 C 55 % 96 % 1020,5 hPa 0,0 l/m 1,6 km/h (1 Bft) N 360 0 min 0,000 mm 0,0 UV-I 0 W/m -1,3 C -0,7 C 4,8 km/h (1 Bft)
17.02.2020 04:38 22,0 C -0,7 C 55 % 96 % 1020,4 hPa 0,0 l/m 0,0 km/h (0 Bft) N 0 0 min 0,000 mm 0,0 UV-I 0 W/m -1,3 C -0,7 C 0,0 km/h (0 Bft)
17.02.2020 04:37 22,0 C -0,8 C 55 % 96 % 1020,4 hPa 0,0 l/m 1,6 km/h (1 Bft) O-SO 112 0 min 0,000 mm 0,0 UV-I 0 W/m -1,4 C -0,8 C 3,2 km/h (1 Bft)
17.02.2020 04:36 22,0 C -0,8 C 55 % 96 % 1020,5 hPa 0,0 l/m 1,6 km/h (1 Bft) O 90 0 min 0,000 mm 0,0 UV-I 0 W/m -1,4 C -0,8 C 1,6 km/h (1 Bft)
17.02.2020 04:35 22,0 C -0,8 C 55 % 96 % 1020,6 hPa 0,0 l/m 1,6 km/h (1 Bft) O 90 0 min 0,000 mm 0,0 UV-I 0 W/m -1,4 C -0,8 C 3,2 km/h (1 Bft)
17.02.2020 04:34 22,0 C -0,8 C 55 % 96 % 1020,4 hPa 0,0 l/m 0,0 km/h (0 Bft) O 90 0 min 0,000 mm 0,0 UV-I 0 W/m -1,4 C -0,8 C 1,6 km/h (1 Bft)
17.02.2020 04:33 22,0 C -0,8 C 55 % 95 % 1020,5 hPa 0,0 l/m 0,0 km/h (0 Bft) O 90 0 min 0,000 mm 0,0 UV-I 0 W/m -1,5 C -0,8 C 1,6 km/h (1 Bft)
17.02.2020 04:32 22,1 C -0,8 C 55 % 95 % 1020,5 hPa 0,0 l/m 0,0 km/h (0 Bft) O 90 0 min 0,000 mm 0,0 UV-I 0 W/m -1,5 C -0,8 C 1,6 km/h (1 Bft)
17.02.2020 04:31 22,0 C -0,9 C 55 % 95 % 1020,5 hPa 0,0 l/m 0,0 km/h (0 Bft) N 0 0 min 0,000 mm 0,0 UV-I 0 W/m -1,6 C -0,9 C 0,0 km/h (0 Bft)
17.02.2020 04:30 22,0 C -0,8 C 55 % 95 % 1020,4 hPa 0,0 l/m 0,0 km/h (0 Bft) N 0 0 min 0,000 mm 0,0 UV-I 0 W/m -1,5 C -0,8 C 0,0 km/h (0 Bft)
17.02.2020 04:29 22,0 C -0,8 C 55 % 95 % 1020,5 hPa 0,0 l/m 1,6 km/h (1 Bft) O 90 0 min 0,000 mm 0,0 UV-I 0 W/m -1,5 C -0,8 C 1,6 km/h (1 Bft)
17.02.2020 04:28 22,1 C -0,7 C 55 % 96 % 1020,6 hPa 0,0 l/m 1,6 km/h (1 Bft) O 90 0 min 0,000 mm 0,0 UV-I 0 W/m -1,3 C -0,7 C 1,6 km/h (1 Bft)
17.02.2020 04:27 22,0 C -0,7 C 55 % 96 % 1020,7 hPa 0,0 l/m 0,0 km/h (0 Bft) O 90 0 min 0,000 mm 0,0 UV-I 0 W/m -1,3 C -0,7 C 1,6 km/h (1 Bft)
17.02.2020 04:26 22,1 C -0,7 C 55 % 96 % 1020,5 hPa 0,0 l/m 0,0 km/h (0 Bft) O 90 0 min 0,000 mm 0,0 UV-I 0 W/m -1,3 C -0,7 C 1,6 km/h (1 Bft)
17.02.2020 04:25 22,0 C -0,7 C 55 % 96 % 1020,4 hPa 0,0 l/m 0,0 km/h (0 Bft) O 90 0 min 0,000 mm 0,0 UV-I 0 W/m -1,3 C -0,7 C 1,6 km/h (1 Bft)
17.02.2020 04:24 22,0 C -0,7 C 55 % 96 % 1020,5 hPa 0,0 l/m 1,6 km/h (1 Bft) O 90 0 min 0,000 mm 0,0 UV-I 0 W/m -1,3 C -0,7 C 3,2 km/h (1 Bft)
17.02.2020 04:23 22,0 C -0,6 C 55 % 96 % 1020,6 hPa 0,0 l/m 1,6 km/h (1 Bft) O 90 0 min 0,000 mm 0,0 UV-I 0 W/m -1,2 C -0,6 C 1,6 km/h (1 Bft)
17.02.2020 04:22 22,0 C -0,6 C 55 % 96 % 1020,5 hPa 0,0 l/m 0,0 km/h (0 Bft) O-SO 112 0 min 0,000 mm 0,0 UV-I 0 W/m -1,2 C -0,6 C 1,6 km/h (1 Bft)
17.02.2020 04:21 22,1 C -0,6 C 55 % 96 % 1020,4 hPa 0,0 l/m 1,6 km/h (1 Bft) SO 135 0 min 0,000 mm 0,0 UV-I 0 W/m -1,2 C -0,6 C 3,2 km/h (1 Bft)
17.02.2020 04:20 22,1 C -0,7 C 55 % 96 % 1020,5 hPa 0,0 l/m 1,6 km/h (1 Bft) SW 225 0 min 0,000 mm 0,0 UV-I 0 W/m -1,3 C -0,7 C 1,6 km/h (1 Bft)
17.02.2020 04:19 22,1 C -0,7 C 55 % 96 % 1020,5 hPa 0,0 l/m 0,0 km/h (0 Bft) SW 225 0 min 0,000 mm 0,0 UV-I 0 W/m -1,3 C -0,7 C 1,6 km/h (1 Bft)
17.02.2020 04:18 22,0 C -0,7 C 55 % 96 % 1020,6 hPa 0,0 l/m 0,0 km/h (0 Bft) SW 225 0 min 0,000 mm 0,0 UV-I 0 W/m -1,3 C -0,7 C 1,6 km/h (1 Bft)
17.02.2020 04:17 22,0 C -0,7 C 55 % 96 % 1020,6 hPa 0,0 l/m 1,6 km/h (1 Bft) SW 225 0 min 0,000 mm 0,0 UV-I 0 W/m -1,3 C -0,7 C 3,2 km/h (1 Bft)
17.02.2020 04:16 22,0 C -0,7 C 55 % 96 % 1020,4 hPa 0,0 l/m 3,2 km/h (1 Bft) S-SW 202 0 min 0,000 mm 0,0 UV-I 0 W/m -1,3 C -0,7 C 3,2 km/h (1 Bft)
17.02.2020 04:15 22,0 C -0,7 C 55 % 96 % 1020,4 hPa 0,0 l/m 1,6 km/h (1 Bft) SO 135 0 min 0,000 mm 0,0 UV-I 0 W/m -1,3 C -0,7 C 3,2 km/h (1 Bft)
17.02.2020 04:14 22,0 C -0,7 C 55 % 96 % 1020,4 hPa 0,0 l/m 1,6 km/h (1 Bft) SO 135 0 min 0,000 mm 0,0 UV-I 0 W/m -1,3 C -0,7 C 3,2 km/h (1 Bft)
17.02.2020 04:13 22,0 C -0,7 C 55 % 96 % 1020,5 hPa 0,0 l/m 1,6 km/h (1 Bft) SO 135 0 min 0,000 mm 0,0 UV-I 0 W/m -1,3 C -0,7 C 3,2 km/h (1 Bft)
17.02.2020 04:12 22,0 C -0,7 C 55 % 96 % 1020,4 hPa 0,0 l/m 1,6 km/h (1 Bft) SO 135 0 min 0,000 mm 0,0 UV-I 0 W/m -1,3 C -0,7 C 3,2 km/h (1 Bft)
17.02.2020 04:11 22,0 C -0,7 C 55 % 96 % 1020,2 hPa 0,0 l/m 0,0 km/h (0 Bft) SO 135 0 min 0,000 mm 0,0 UV-I 0 W/m -1,3 C -0,7 C 1,6 km/h (1 Bft)
17.02.2020 04:10 22,0 C -0,8 C 55 % 96 % 1020,3 hPa 0,0 l/m 1,6 km/h (1 Bft) SO 135 0 min 0,000 mm 0,0 UV-I 0 W/m -1,4 C -0,8 C 3,2 km/h (1 Bft)
17.02.2020 04:09 22,0 C -0,8 C 55 % 96 % 1020,4 hPa 0,0 l/m 3,2 km/h (1 Bft) W 270 0 min 0,000 mm 0,0 UV-I 0 W/m -1,4 C -0,8 C 3,2 km/h (1 Bft)
17.02.2020 04:08 22,1 C -0,8 C 55 % 96 % 1020,3 hPa 0,0 l/m 1,6 km/h (1 Bft) W-NW 292 0 min 0,000 mm 0,0 UV-I 0 W/m -1,4 C -0,8 C 3,2 km/h (1 Bft)
17.02.2020 04:07 22,0 C -0,8 C 55 % 95 % 1020,1 hPa 0,0 l/m 0,0 km/h (0 Bft) W-NW 292 0 min 0,000 mm 0,0 UV-I 0 W/m -1,5 C -0,8 C 1,6 km/h (1 Bft)
17.02.2020 04:06 22,1 C -0,9 C 55 % 95 % 1020,1 hPa 0,0 l/m 1,6 km/h (1 Bft) W-NW 292 0 min 0,000 mm 0,0 UV-I 0 W/m -1,6 C -0,9 C 3,2 km/h (1 Bft)
17.02.2020 04:05 22,1 C -1,0 C 55 % 95 % 1020,3 hPa 0,0 l/m 1,6 km/h (1 Bft) W-NW 292 0 min 0,000 mm 0,0 UV-I 0 W/m -1,7 C -1,0 C 3,2 km/h (1 Bft)
17.02.2020 04:04 22,0 C -0,9 C 55 % 95 % 1020,3 hPa 0,0 l/m 1,6 km/h (1 Bft) W-NW 292 0 min 0,000 mm 0,0 UV-I 0 W/m -1,6 C -0,9 C 3,2 km/h (1 Bft)
17.02.2020 04:03 22,0 C -0,9 C 55 % 95 % 1020,1 hPa 0,0 l/m 0,0 km/h (0 Bft) N 0 0 min 0,000 mm 0,0 UV-I 0 W/m -1,6 C -0,9 C 0,0 km/h (0 Bft)
17.02.2020 04:02 22,0 C -0,9 C 55 % 95 % 1020,3 hPa 0,0 l/m 0,0 km/h (0 Bft) NW 315 0 min 0,000 mm 0,0 UV-I 0 W/m -1,6 C -0,9 C 1,6 km/h (1 Bft)
17.02.2020 04:01 22,1 C -0,9 C 55 % 95 % 1020,3 hPa 0,0 l/m 0,0 km/h (0 Bft) NW 315 0 min 0,000 mm 0,0 UV-I 0 W/m -1,6 C -0,9 C 1,6 km/h (1 Bft)
17.02.2020 04:00 22,1 C -0,8 C 55 % 95 % 1020,3 hPa 0,0 l/m 0,0 km/h (0 Bft) NW 315 0 min 0,000 mm 0,0 UV-I 0 W/m -1,5 C -0,8 C 1,6 km/h (1 Bft)
17.02.2020 03:59 22,1 C -0,7 C 55 % 96 % 1020,3 hPa 0,0 l/m 1,6 km/h (1 Bft) NW 315 0 min 0,000 mm 0,0 UV-I 0 W/m -1,3 C -0,7 C 3,2 km/h (1 Bft)
17.02.2020 03:58 22,1 C -0,6 C 55 % 96 % 1020,1 hPa 0,0 l/m 1,6 km/h (1 Bft) S-SO 157 0 min 0,000 mm 0,0 UV-I 0 W/m -1,2 C -0,6 C 3,2 km/h (1 Bft)
17.02.2020 03:57 22,0 C -0,6 C 55 % 96 % 1020,1 hPa 0,0 l/m 0,0 km/h (0 Bft) S-SO 157 0 min 0,000 mm 0,0 UV-I 0 W/m -1,2 C -0,6 C 1,6 km/h (1 Bft)
17.02.2020 03:56 22,0 C -0,6 C 55 % 96 % 1019,9 hPa 0,0 l/m 1,6 km/h (1 Bft) S-SO 157 0 min 0,000 mm 0,0 UV-I 0 W/m -1,2 C -0,6 C 3,2 km/h (1 Bft)
17.02.2020 03:55 22,1 C -0,6 C 55 % 96 % 1020,0 hPa 0,0 l/m 1,6 km/h (1 Bft) S-SO 157 0 min 0,000 mm 0,0 UV-I 0 W/m -1,2 C -0,6 C 3,2 km/h (1 Bft)
17.02.2020 03:54 22,0 C -0,6 C 55 % 95 % 1020,1 hPa 0,0 l/m 0,0 km/h (0 Bft) S-SW 202 0 min 0,000 mm 0,0 UV-I 0 W/m -1,3 C -0,6 C 1,6 km/h (1 Bft)
17.02.2020 03:53 22,0 C -0,6 C 55 % 95 % 1020,2 hPa 0,0 l/m 0,0 km/h (0 Bft) N 0 0 min 0,000 mm 0,0 UV-I 0 W/m -1,3 C -0,6 C 0,0 km/h (0 Bft)
17.02.2020 03:52 22,0 C -0,7 C 55 % 95 % 1020,0 hPa 0,0 l/m 0,0 km/h (0 Bft) S-SW 202 0 min 0,000 mm 0,0 UV-I 0 W/m -1,4 C -0,7 C 1,6 km/h (1 Bft)
17.02.2020 03:51 22,1 C -0,6 C 55 % 95 % 1020,0 hPa 0,0 l/m 1,6 km/h (1 Bft) S-SW 202 0 min 0,000 mm 0,0 UV-I 0 W/m -1,3 C -0,6 C 1,6 km/h (1 Bft)
17.02.2020 03:50 22,0 C -0,6 C 55 % 95 % 1019,9 hPa 0,0 l/m 0,0 km/h (0 Bft) S-SW 202 0 min 0,000 mm 0,0 UV-I 0 W/m -1,3 C -0,6 C 1,6 km/h (1 Bft)
17.02.2020 03:49 22,0 C -0,6 C 55 % 96 % 1019,8 hPa 0,0 l/m 1,6 km/h (1 Bft) S-SW 202 0 min 0,000 mm 0,0 UV-I 0 W/m -1,2 C -0,6 C 3,2 km/h (1 Bft)
17.02.2020 03:48 22,0 C -0,6 C 55 % 96 % 1019,9 hPa 0,0 l/m 1,6 km/h (1 Bft) S 180 0 min 0,000 mm 0,0 UV-I 0 W/m -1,2 C -0,6 C 3,2 km/h (1 Bft)
17.02.2020 03:47 22,0 C -0,6 C 55 % 95 % 1019,9 hPa 0,0 l/m 3,2 km/h (1 Bft) S-SW 202 0 min 0,000 mm 0,0 UV-I 0 W/m -1,3 C -0,6 C 4,8 km/h (1 Bft)
17.02.2020 03:46 22,0 C -0,6 C 55 % 96 % 1019,9 hPa 0,0 l/m 1,6 km/h (1 Bft) W 270 0 min 0,000 mm 0,0 UV-I 0 W/m -1,2 C -0,6 C 3,2 km/h (1 Bft)
17.02.2020 03:45 22,0 C -0,6 C 55 % 95 % 1020,0 hPa 0,0 l/m 3,2 km/h (1 Bft) W 270 0 min 0,000 mm 0,0 UV-I 0 W/m -1,3 C -0,6 C 3,2 km/h (1 Bft)
17.02.2020 03:44 22,1 C -0,6 C 55 % 95 % 1020,0 hPa 0,0 l/m 3,2 km/h (1 Bft) W 270 0 min 0,000 mm 0,0 UV-I 0 W/m -1,3 C -0,6 C 4,8 km/h (1 Bft)
17.02.2020 03:43 22,0 C -0,6 C 55 % 95 % 1019,9 hPa 0,0 l/m 3,2 km/h (1 Bft) W 270 0 min 0,000 mm 0,0 UV-I 0 W/m -1,3 C -0,6 C 4,8 km/h (1 Bft)
17.02.2020 03:42 22,0 C -0,6 C 55 % 95 % 1019,8 hPa 0,0 l/m 0,0 km/h (0 Bft) W-NW 292 0 min 0,000 mm 0,0 UV-I 0 W/m -1,3 C -0,6 C 3,2 km/h (1 Bft)
17.02.2020 03:41 22,0 C -0,6 C 55 % 95 % 1019,7 hPa 0,0 l/m 0,0 km/h (0 Bft) W-NW 292 0 min 0,000 mm 0,0 UV-I 0 W/m -1,3 C -0,6 C 1,6 km/h (1 Bft)
17.02.2020 03:40 22,0 C -0,6 C 55 % 96 % 1019,7 hPa 0,0 l/m 0,0 km/h (0 Bft) N 0 0 min 0,000 mm 0,0 UV-I 0 W/m -1,2 C -0,6 C 0,0 km/h (0 Bft)
17.02.2020 03:39 22,1 C -0,7 C 55 % 95 % 1019,7 hPa 0,0 l/m 0,0 km/h (0 Bft) N 0 0 min 0,000 mm 0,0 UV-I 0 W/m -1,4 C -0,7 C 0,0 km/h (0 Bft)
17.02.2020 03:38 22,0 C -0,7 C 55 % 95 % 1019,7 hPa 0,0 l/m 0,0 km/h (0 Bft) W-NW 292 0 min 0,000 mm 0,0 UV-I 0 W/m -1,4 C -0,7 C 1,6 km/h (1 Bft)
17.02.2020 03:37 22,0 C -0,7 C 55 % 95 % 1019,8 hPa 0,0 l/m 1,6 km/h (1 Bft) W-NW 292 0 min 0,000 mm 0,0 UV-I 0 W/m -1,4 C -0,7 C 1,6 km/h (1 Bft)
17.02.2020 03:36 22,0 C -0,7 C 55 % 95 % 1019,7 hPa 0,0 l/m 0,0 km/h (0 Bft) W-NW 292 0 min 0,000 mm 0,0 UV-I 0 W/m -1,4 C -0,7 C 1,6 km/h (1 Bft)
17.02.2020 03:35 22,1 C -0,7 C 55 % 95 % 1019,7 hPa 0,0 l/m 0,0 km/h (0 Bft) N 0 0 min 0,000 mm 0,0 UV-I 0 W/m -1,4 C -0,7 C 0,0 km/h (0 Bft)
17.02.2020 03:34 22,1 C -0,7 C 55 % 95 % 1019,7 hPa 0,0 l/m 0,0 km/h (0 Bft) N 0 0 min 0,000 mm 0,0 UV-I 0 W/m -1,4 C -0,7 C 0,0 km/h (0 Bft)
17.02.2020 03:33 22,1 C -0,7 C 55 % 95 % 1019,7 hPa 0,0 l/m 0,0 km/h (0 Bft) W-NW 292 0 min 0,000 mm 0,0 UV-I 0 W/m -1,4 C -0,7 C 1,6 km/h (1 Bft)
17.02.2020 03:32 22,0 C -0,6 C 55 % 95 % 1019,8 hPa 0,0 l/m 1,6 km/h (1 Bft) W-NW 292 0 min 0,000 mm 0,0 UV-I 0 W/m -1,3 C -0,6 C 3,2 km/h (1 Bft)
17.02.2020 03:31 22,0 C -0,5 C 55 % 95 % 1019,8 hPa 0,0 l/m 3,2 km/h (1 Bft) W-NW 292 0 min 0,000 mm 0,0 UV-I 0 W/m -1,2 C -0,5 C 3,2 km/h (1 Bft)
17.02.2020 03:30 22,0 C -0,4 C 55 % 95 % 1019,7 hPa 0,0 l/m 0,0 km/h (0 Bft) W 270 0 min 0,000 mm 0,0 UV-I 0 W/m -1,1 C -0,4 C 1,6 km/h (1 Bft)
17.02.2020 03:29 22,0 C -0,5 C 55 % 95 % 1019,6 hPa 0,0 l/m 0,0 km/h (0 Bft) W 270 0 min 0,000 mm 0,0 UV-I 0 W/m -1,2 C -0,5 C 1,6 km/h (1 Bft)
17.02.2020 03:28 22,0 C -0,4 C 55 % 95 % 1019,7 hPa 0,0 l/m 1,6 km/h (1 Bft) W 270 0 min 0,000 mm 0,0 UV-I 0 W/m -1,1 C -0,4 C 3,2 km/h (1 Bft)
17.02.2020 03:27 22,0 C -0,4 C 55 % 95 % 1019,9 hPa 0,0 l/m 0,0 km/h (0 Bft) W 270 0 min 0,000 mm 0,0 UV-I 0 W/m -1,1 C -0,4 C 1,6 km/h (1 Bft)
17.02.2020 03:26 22,0 C -0,3 C 55 % 95 % 1019,8 hPa 0,0 l/m 1,6 km/h (1 Bft) W 270 0 min 0,000 mm 0,0 UV-I 0 W/m -1,0 C -0,3 C 1,6 km/h (1 Bft)
17.02.2020 03:25 22,1 C -0,3 C 55 % 95 % 1019,8 hPa 0,0 l/m 0,0 km/h (0 Bft) W 270 0 min 0,000 mm 0,0 UV-I 0 W/m -1,0 C -0,3 C 1,6 km/h (1 Bft)
17.02.2020 03:24 22,0 C -0,3 C 55 % 95 % 1019,7 hPa 0,0 l/m 0,0 km/h (0 Bft) W 270 0 min 0,000 mm 0,0 UV-I 0 W/m -1,0 C -0,3 C 1,6 km/h (1 Bft)
17.02.2020 03:23 22,0 C -0,3 C 55 % 95 % 1019,7 hPa 0,0 l/m 0,0 km/h (0 Bft) W 270 0 min 0,000 mm 0,0 UV-I 0 W/m -1,0 C -0,3 C 1,6 km/h (1 Bft)
17.02.2020 03:22 22,0 C -0,4 C 55 % 95 % 1019,8 hPa 0,0 l/m 0,0 km/h (0 Bft) N 0 0 min 0,000 mm 0,0 UV-I 0 W/m -1,1 C -0,4 C 0,0 km/h (0 Bft)
17.02.2020 03:21 22,0 C -0,3 C 55 % 95 % 1019,8 hPa 0,0 l/m 0,0 km/h (0 Bft) N 0 0 min 0,000 mm 0,0 UV-I 0 W/m -1,0 C -0,3 C 0,0 km/h (0 Bft)
17.02.2020 03:20 22,0 C -0,3 C 55 % 95 % 1019,8 hPa 0,0 l/m 0,0 km/h (0 Bft) N 0 0 min 0,000 mm 0,0 UV-I 0 W/m -1,0 C -0,3 C 0,0 km/h (0 Bft)
17.02.2020 03:19 22,0 C -0,3 C 55 % 95 % 1019,8 hPa 0,0 l/m 0,0 km/h (0 Bft) N 0 0 min 0,000 mm 0,0 UV-I 0 W/m -1,0 C -0,3 C 0,0 km/h (0 Bft)
17.02.2020 03:18 22,0 C -0,4 C 55 % 95 % 1019,7 hPa 0,0 l/m 0,0 km/h (0 Bft) W 270 0 min 0,000 mm 0,0 UV-I 0 W/m -1,1 C -0,4 C 1,6 km/h (1 Bft)
17.02.2020 03:17 22,0 C -0,4 C 55 % 95 % 1019,8 hPa 0,0 l/m 0,0 km/h (0 Bft) W 270 0 min 0,000 mm 0,0 UV-I 0 W/m -1,1 C -0,4 C 1,6 km/h (1 Bft)
17.02.2020 03:16 22,1 C -0,4 C 55 % 95 % 1019,8 hPa 0,0 l/m 0,0 km/h (0 Bft) W 270 0 min 0,000 mm 0,0 UV-I 0 W/m -1,1 C -0,4 C 1,6 km/h (1 Bft)
17.02.2020 03:15 22,0 C -0,4 C 55 % 95 % 1019,8 hPa 0,0 l/m 0,0 km/h (0 Bft) N 0 0 min 0,000 mm 0,0 UV-I 0 W/m -1,1 C -0,4 C 0,0 km/h (0 Bft)
17.02.2020 03:14 22,0 C -0,3 C 55 % 95 % 1019,8 hPa 0,0 l/m 0,0 km/h (0 Bft) N 0 0 min 0,000 mm 0,0 UV-I 0 W/m -1,0 C -0,3 C 0,0 km/h (0 Bft)
17.02.2020 03:13 22,0 C -0,3 C 55 % 95 % 1019,8 hPa 0,0 l/m 0,0 km/h (0 Bft) N 0 0 min 0,000 mm 0,0 UV-I 0 W/m -1,0 C -0,3 C 0,0 km/h (0 Bft)
17.02.2020 03:12 22,1 C -0,2 C 55 % 95 % 1019,8 hPa 0,0 l/m 0,0 km/h (0 Bft) N 0 0 min 0,000 mm 0,0 UV-I 0 W/m -0,9 C -0,2 C 0,0 km/h (0 Bft)
17.02.2020 03:11 22,1 C -0,2 C 55 % 95 % 1019,8 hPa 0,0 l/m 0,0 km/h (0 Bft) N 0 0 min 0,000 mm 0,0 UV-I 0 W/m -0,9 C -0,2 C 0,0 km/h (0 Bft)
17.02.2020 03:10 22,0 C -0,2 C 55 % 95 % 1019,8 hPa 0,0 l/m 0,0 km/h (0 Bft) N 0 0 min 0,000 mm 0,0 UV-I 0 W/m -0,9 C -0,2 C 0,0 km/h (0 Bft)
17.02.2020 03:09 22,1 C -0,2 C 55 % 95 % 1019,8 hPa 0,0 l/m 0,0 km/h (0 Bft) N 0 0 min 0,000 mm 0,0 UV-I 0 W/m -0,9 C -0,2 C 0,0 km/h (0 Bft)
17.02.2020 03:08 22,1 C -0,2 C 55 % 95 % 1019,8 hPa 0,0 l/m 0,0 km/h (0 Bft) W 270 0 min 0,000 mm 0,0 UV-I 0 W/m -0,9 C -0,2 C 1,6 km/h (1 Bft)
17.02.2020 03:07 22,1 C -0,1 C 55 % 95 % 1019,8 hPa 0,0 l/m 0,0 km/h (0 Bft) N 0 0 min 0,000 mm 0,0 UV-I 0 W/m -0,8 C -0,1 C 0,0 km/h (0 Bft)
17.02.2020 03:06 22,0 C -0,1 C 55 % 95 % 1019,8 hPa 0,0 l/m 0,0 km/h (0 Bft) N 0 0 min 0,000 mm 0,0 UV-I 0 W/m -0,8 C -0,1 C 0,0 km/h (0 Bft)
17.02.2020 03:05 22,0 C -0,1 C 55 % 95 % 1019,8 hPa 0,0 l/m 0,0 km/h (0 Bft) N 0 0 min 0,000 mm 0,0 UV-I 0 W/m -0,8 C -0,1 C 0,0 km/h (0 Bft)
17.02.2020 03:04 22,1 C -0,1 C 55 % 95 % 1019,8 hPa 0,0 l/m 0,0 km/h (0 Bft) N 0 0 min 0,000 mm 0,0 UV-I 0 W/m -0,8 C -0,1 C 0,0 km/h (0 Bft)
17.02.2020 03:03 22,0 C -0,1 C 55 % 95 % 1019,8 hPa 0,0 l/m 0,0 km/h (0 Bft) N 0 0 min 0,000 mm 0,0 UV-I 0 W/m -0,8 C -0,1 C 0,0 km/h (0 Bft)
17.02.2020 03:02 22,0 C -0,2 C 55 % 95 % 1019,8 hPa 0,0 l/m 0,0 km/h (0 Bft) N 0 0 min 0,000 mm 0,0 UV-I 0 W/m -0,9 C -0,2 C 0,0 km/h (0 Bft)
17.02.2020 03:01 22,0 C -0,1 C 55 % 95 % 1019,8 hPa 0,0 l/m 0,0 km/h (0 Bft) N 0 0 min 0,000 mm 0,0 UV-I 0 W/m -0,8 C -0,1 C 0,0 km/h (0 Bft)
17.02.2020 03:00 22,0 C -0,2 C 55 % 95 % 1019,8 hPa 0,0 l/m 0,0 km/h (0 Bft) N 0 0 min 0,000 mm 0,0 UV-I 0 W/m -0,9 C -0,2 C 0,0 km/h (0 Bft)
17.02.2020 02:59 22,0 C -0,3 C 55 % 95 % 1019,8 hPa 0,0 l/m 0,0 km/h (0 Bft) N 0 0 min 0,000 mm 0,0 UV-I 0 W/m -1,0 C -0,3 C 0,0 km/h (0 Bft)
17.02.2020 02:58 22,0 C -0,3 C 55 % 95 % 1019,9 hPa 0,0 l/m 0,0 km/h (0 Bft) W 270 0 min 0,000 mm 0,0 UV-I 0 W/m -1,0 C -0,3 C 1,6 km/h (1 Bft)
17.02.2020 02:57 22,0 C -0,3 C 55 % 95 % 1019,9 hPa 0,0 l/m 1,6 km/h (1 Bft) W 270 0 min 0,000 mm 0,0 UV-I 0 W/m -1,0 C -0,3 C 1,6 km/h (1 Bft)
17.02.2020 02:56 22,0 C -0,3 C 55 % 95 % 1019,9 hPa 0,0 l/m 0,0 km/h (0 Bft) W 270 0 min 0,000 mm 0,0 UV-I 0 W/m -1,0 C -0,3 C 1,6 km/h (1 Bft)
17.02.2020 02:55 22,1 C -0,3 C 55 % 95 % 1019,8 hPa 0,0 l/m 0,0 km/h (0 Bft) N 0 0 min 0,000 mm 0,0 UV-I 0 W/m -1,0 C -0,3 C 0,0 km/h (0 Bft)
17.02.2020 02:54 22,1 C -0,3 C 55 % 95 % 1019,8 hPa 0,0 l/m 0,0 km/h (0 Bft) N 0 0 min 0,000 mm 0,0 UV-I 0 W/m -1,0 C -0,3 C 0,0 km/h (0 Bft)
17.02.2020 02:53 22,0 C -0,2 C 55 % 95 % 1019,9 hPa 0,0 l/m 0,0 km/h (0 Bft) N 0 0 min 0,000 mm 0,0 UV-I 0 W/m -0,9 C -0,2 C 0,0 km/h (0 Bft)
17.02.2020 02:52 22,1 C -0,2 C 55 % 95 % 1019,8 hPa 0,0 l/m 0,0 km/h (0 Bft) N 0 0 min 0,000 mm 0,0 UV-I 0 W/m -0,9 C -0,2 C 0,0 km/h (0 Bft)
17.02.2020 02:51 22,1 C -0,2 C 55 % 94 % 1019,8 hPa 0,0 l/m 0,0 km/h (0 Bft) N 0 0 min 0,000 mm 0,0 UV-I 0 W/m -1,0 C -0,2 C 0,0 km/h (0 Bft)
17.02.2020 02:50 22,0 C -0,1 C 55 % 95 % 1019,9 hPa 0,0 l/m 0,0 km/h (0 Bft) W 270 0 min 0,000 mm 0,0 UV-I 0 W/m -0,8 C -0,1 C 1,6 km/h (1 Bft)
17.02.2020 02:49 22,0 C 0,0 C 55 % 95 % 1019,9 hPa 0,0 l/m 0,0 km/h (0 Bft) W 270 0 min 0,000 mm 0,0 UV-I 0 W/m -0,7 C 0,0 C 1,6 km/h (1 Bft)
17.02.2020 02:48 22,0 C 0,1 C 55 % 95 % 1019,8 hPa 0,0 l/m 0,0 km/h (0 Bft) W 270 0 min 0,000 mm 0,0 UV-I 0 W/m -0,6 C 0,1 C 1,6 km/h (1 Bft)
17.02.2020 02:47 22,1 C 0,1 C 55 % 95 % 1019,9 hPa 0,0 l/m 1,6 km/h (1 Bft) W 270 0 min 0,000 mm 0,0 UV-I 0 W/m -0,6 C 0,1 C 1,6 km/h (1 Bft)
17.02.2020 02:46 22,0 C 0,2 C 55 % 95 % 1019,8 hPa 0,0 l/m 0,0 km/h (0 Bft) W 270 0 min 0,000 mm 0,0 UV-I 0 W/m -0,5 C 0,2 C 1,6 km/h (1 Bft)
17.02.2020 02:45 22,0 C 0,2 C 55 % 95 % 1019,9 hPa 0,0 l/m 0,0 km/h (0 Bft) W 270 0 min 0,000 mm 0,0 UV-I 0 W/m -0,5 C 0,2 C 1,6 km/h (1 Bft)
17.02.2020 02:44 22,1 C 0,3 C 55 % 95 % 1019,9 hPa 0,0 l/m 1,6 km/h (1 Bft) W 270 0 min 0,000 mm 0,0 UV-I 0 W/m -0,4 C 0,3 C 3,2 km/h (1 Bft)
17.02.2020 02:43 22,1 C 0,2 C 55 % 95 % 1019,8 hPa 0,0 l/m 0,0 km/h (0 Bft) O-SO 112 0 min 0,000 mm 0,0 UV-I 0 W/m -0,5 C 0,2 C 1,6 km/h (1 Bft)
17.02.2020 02:42 22,1 C 0,2 C 55 % 95 % 1019,7 hPa 0,0 l/m 1,6 km/h (1 Bft) O-SO 112 0 min 0,000 mm 0,0 UV-I 0 W/m -0,5 C 0,2 C 3,2 km/h (1 Bft)
17.02.2020 02:41 22,1 C 0,2 C 55 % 95 % 1019,9 hPa 0,0 l/m 1,6 km/h (1 Bft) W 270 0 min 0,000 mm 0,0 UV-I 0 W/m -0,5 C 0,2 C 3,2 km/h (1 Bft)
17.02.2020 02:40 22,1 C 0,2 C 55 % 95 % 1020,0 hPa 0,0 l/m 0,0 km/h (0 Bft) W 270 0 min 0,000 mm 0,0 UV-I 0 W/m -0,5 C 0,2 C 1,6 km/h (1 Bft)
17.02.2020 02:39 22,0 C 0,3 C 55 % 95 % 1019,8 hPa 0,0 l/m 0,0 km/h (0 Bft) N 0 0 min 0,000 mm 0,0 UV-I 0 W/m -0,4 C 0,3 C 0,0 km/h (0 Bft)
17.02.2020 02:38 22,0 C 0,3 C 55 % 95 % 1020,0 hPa 0,0 l/m 0,0 km/h (0 Bft) W 270 0 min 0,000 mm 0,0 UV-I 0 W/m -0,4 C 0,3 C 1,6 km/h (1 Bft)
17.02.2020 02:37 22,1 C 0,3 C 55 % 95 % 1019,9 hPa 0,0 l/m 0,0 km/h (0 Bft) W 270 0 min 0,000 mm 0,0 UV-I 0 W/m -0,4 C 0,3 C 1,6 km/h (1 Bft)
17.02.2020 02:36 22,0 C 0,3 C 55 % 96 % 1019,9 hPa 0,0 l/m 0,0 km/h (0 Bft) N 0 0 min 0,000 mm 0,0 UV-I 0 W/m -0,3 C 0,3 C 0,0 km/h (0 Bft)
17.02.2020 02:35 22,0 C 0,3 C 55 % 96 % 1020,1 hPa 0,0 l/m 1,6 km/h (1 Bft) W 270 0 min 0,000 mm 0,0 UV-I 0 W/m -0,3 C 0,3 C 3,2 km/h (1 Bft)
17.02.2020 02:34 22,1 C 0,3 C 55 % 95 % 1020,0 hPa 0,0 l/m 1,6 km/h (1 Bft) W 270 0 min 0,000 mm 0,0 UV-I 0 W/m -0,4 C 0,3 C 3,2 km/h (1 Bft)
17.02.2020 02:33 22,0 C 0,3 C 55 % 96 % 1019,8 hPa 0,0 l/m 0,0 km/h (0 Bft) W 270 0 min 0,000 mm 0,0 UV-I 0 W/m -0,3 C 0,3 C 1,6 km/h (1 Bft)
17.02.2020 02:32 22,1 C 0,2 C 55 % 95 % 1019,9 hPa 0,0 l/m 1,6 km/h (1 Bft) W 270 0 min 0,000 mm 0,0 UV-I 0 W/m -0,5 C 0,2 C 6,4 km/h (2 Bft)
17.02.2020 02:31 22,1 C 0,2 C 55 % 96 % 1020,1 hPa 0,0 l/m 3,2 km/h (1 Bft) W 270 0 min 0,000 mm 0,0 UV-I 0 W/m -0,4 C 0,2 C 4,8 km/h (1 Bft)
17.02.2020 02:30 22,1 C 0,2 C 55 % 95 % 1019,9 hPa 0,0 l/m 3,2 km/h (1 Bft) W-SW 247 0 min 0,000 mm 0,0 UV-I 0 W/m -0,5 C 0,2 C 6,4 km/h (2 Bft)
17.02.2020 02:29 22,0 C 0,2 C 55 % 95 % 1019,7 hPa 0,0 l/m 1,6 km/h (1 Bft) S-SO 157 0 min 0,000 mm 0,0 UV-I 0 W/m -0,5 C 0,2 C 1,6 km/h (1 Bft)
17.02.2020 02:28 22,0 C 0,2 C 55 % 95 % 1020,1 hPa 0,0 l/m 1,6 km/h (1 Bft) S-SO 157 0 min 0,000 mm 0,0 UV-I 0 W/m -0,5 C 0,2 C 3,2 km/h (1 Bft)
17.02.2020 02:27 22,0 C 0,2 C 55 % 96 % 1020,2 hPa 0,0 l/m 3,2 km/h (1 Bft) W 270 0 min 0,000 mm 0,0 UV-I 0 W/m -0,4 C 0,2 C 4,8 km/h (1 Bft)
17.02.2020 02:26 22,1 C 0,1 C 55 % 96 % 1020,1 hPa 0,0 l/m 1,6 km/h (1 Bft) W 270 0 min 0,000 mm 0,0 UV-I 0 W/m -0,5 C 0,1 C 3,2 km/h (1 Bft)
17.02.2020 02:25 22,0 C 0,1 C 55 % 95 % 1020,1 hPa 0,0 l/m 1,6 km/h (1 Bft) W 270 0 min 0,000 mm 0,0 UV-I 0 W/m -0,6 C 0,1 C 3,2 km/h (1 Bft)
17.02.2020 02:24 22,0 C 0,1 C 55 % 96 % 1020,2 hPa 0,0 l/m 3,2 km/h (1 Bft) W 270 0 min 0,000 mm 0,0 UV-I 0 W/m -0,5 C 0,1 C 3,2 km/h (1 Bft)
17.02.2020 02:23 22,1 C 0,1 C 55 % 96 % 1020,0 hPa 0,0 l/m 3,2 km/h (1 Bft) W 270 0 min 0,000 mm 0,0 UV-I 0 W/m -0,5 C 0,1 C 4,8 km/h (1 Bft)
17.02.2020 02:22 22,1 C 0,1 C 55 % 95 % 1020,0 hPa 0,0 l/m 1,6 km/h (1 Bft) W 270 0 min 0,000 mm 0,0 UV-I 0 W/m -0,6 C 0,1 C 1,6 km/h (1 Bft)
17.02.2020 02:21 22,1 C 0,1 C 55 % 95 % 1020,1 hPa 0,0 l/m 1,6 km/h (1 Bft) W 270 0 min 0,000 mm 0,0 UV-I 0 W/m -0,6 C 0,1 C 3,2 km/h (1 Bft)
17.02.2020 02:20 22,1 C 0,0 C 55 % 95 % 1020,1 hPa 0,0 l/m 3,2 km/h (1 Bft) W 270 0 min 0,000 mm 0,0 UV-I 0 W/m -0,7 C 0,0 C 4,8 km/h (1 Bft)
17.02.2020 02:19 22,0 C 0,0 C 55 % 95 % 1020,2 hPa 0,0 l/m 1,6 km/h (1 Bft) W-SW 247 0 min 0,000 mm 0,0 UV-I 0 W/m -0,7 C 0,0 C 3,2 km/h (1 Bft)
17.02.2020 02:18 22,1 C -0,1 C 55 % 95 % 1020,1 hPa 0,0 l/m 1,6 km/h (1 Bft) W-SW 247 0 min 0,000 mm 0,0 UV-I 0 W/m -0,8 C -0,1 C 3,2 km/h (1 Bft)
17.02.2020 02:17 22,1 C -0,1 C 55 % 95 % 1020,2 hPa 0,0 l/m 1,6 km/h (1 Bft) W-SW 247 0 min 0,000 mm 0,0 UV-I 0 W/m -0,8 C -0,1 C 4,8 km/h (1 Bft)
17.02.2020 02:16 22,1 C -0,1 C 55 % 95 % 1020,2 hPa 0,0 l/m 3,2 km/h (1 Bft) W-SW 247 0 min 0,000 mm 0,0 UV-I 0 W/m -0,8 C -0,1 C 4,8 km/h (1 Bft)
17.02.2020 02:15 22,0 C -0,1 C 55 % 95 % 1020,1 hPa 0,0 l/m 3,2 km/h (1 Bft) W-SW 247 0 min 0,000 mm 0,0 UV-I 0 W/m -0,8 C -0,1 C 4,8 km/h (1 Bft)
17.02.2020 02:14 22,0 C -0,1 C 55 % 95 % 1020,3 hPa 0,0 l/m 1,6 km/h (1 Bft) W 270 0 min 0,000 mm 0,0 UV-I 0 W/m -0,8 C -0,1 C 3,2 km/h (1 Bft)
17.02.2020 02:13 22,1 C -0,1 C 55 % 95 % 1020,3 hPa 0,0 l/m 1,6 km/h (1 Bft) W 270 0 min 0,000 mm 0,0 UV-I 0 W/m -0,8 C -0,1 C 3,2 km/h (1 Bft)
17.02.2020 02:12 22,1 C 0,0 C 55 % 95 % 1020,3 hPa 0,0 l/m 1,6 km/h (1 Bft) W 270 0 min 0,000 mm 0,0 UV-I 0 W/m -0,7 C 0,0 C 3,2 km/h (1 Bft)
17.02.2020 02:11 22,1 C -0,1 C 55 % 95 % 1020,1 hPa 0,0 l/m 1,6 km/h (1 Bft) W 270 0 min 0,000 mm 0,0 UV-I 0 W/m -0,8 C -0,1 C 1,6 km/h (1 Bft)
17.02.2020 02:10 22,0 C 0,0 C 55 % 95 % 1020,2 hPa 0,0 l/m 1,6 km/h (1 Bft) W 270 0 min 0,000 mm 0,0 UV-I 0 W/m -0,7 C 0,0 C 3,2 km/h (1 Bft)
17.02.2020 02:09 22,0 C 0,0 C 55 % 95 % 1020,1 hPa 0,0 l/m 3,2 km/h (1 Bft) W 270 0 min 0,000 mm 0,0 UV-I 0 W/m -0,7 C 0,0 C 3,2 km/h (1 Bft)
17.02.2020 02:08 22,1 C 0,0 C 55 % 95 % 1020,2 hPa 0,0 l/m 1,6 km/h (1 Bft) W 270 0 min 0,000 mm 0,0 UV-I 0 W/m -0,7 C 0,0 C 3,2 km/h (1 Bft)
17.02.2020 02:07 22,1 C 0,1 C 55 % 95 % 1020,2 hPa 0,0 l/m 0,0 km/h (0 Bft) N 0 0 min 0,000 mm 0,0 UV-I 0 W/m -0,6 C 0,1 C 0,0 km/h (0 Bft)
17.02.2020 02:06 22,1 C 0,1 C 55 % 95 % 1020,2 hPa 0,0 l/m 0,0 km/h (0 Bft) N 0 0 min 0,000 mm 0,0 UV-I 0 W/m -0,6 C 0,1 C 0,0 km/h (0 Bft)
17.02.2020 02:05 22,0 C 0,1 C 55 % 95 % 1020,1 hPa 0,0 l/m 0,0 km/h (0 Bft) N 0 0 min 0,000 mm 0,0 UV-I 0 W/m -0,6 C 0,1 C 0,0 km/h (0 Bft)
17.02.2020 02:04 22,1 C 0,1 C 55 % 95 % 1020,2 hPa 0,0 l/m 0,0 km/h (0 Bft) N 0 0 min 0,000 mm 0,0 UV-I 0 W/m -0,6 C 0,1 C 0,0 km/h (0 Bft)
17.02.2020 02:03 22,1 C 0,2 C 55 % 95 % 1020,2 hPa 0,0 l/m 0,0 km/h (0 Bft) W 270 0 min 0,000 mm 0,0 UV-I 0 W/m -0,5 C 0,2 C 1,6 km/h (1 Bft)
17.02.2020 02:02 22,1 C 0,1 C 55 % 95 % 1020,2 hPa 0,0 l/m 0,0 km/h (0 Bft) W 270 0 min 0,000 mm 0,0 UV-I 0 W/m -0,6 C 0,1 C 1,6 km/h (1 Bft)
17.02.2020 02:01 22,1 C 0,1 C 55 % 95 % 1020,3 hPa 0,0 l/m 0,0 km/h (0 Bft) W 270 0 min 0,000 mm 0,0 UV-I 0 W/m -0,6 C 0,1 C 1,6 km/h (1 Bft)
17.02.2020 02:00 22,1 C 0,1 C 55 % 95 % 1020,3 hPa 0,0 l/m 0,0 km/h (0 Bft) W 270 0 min 0,000 mm 0,0 UV-I 0 W/m -0,6 C 0,1 C 1,6 km/h (1 Bft)
17.02.2020 01:59 22,1 C 0,1 C 55 % 95 % 1020,3 hPa 0,0 l/m 1,6 km/h (1 Bft) W 270 0 min 0,000 mm 0,0 UV-I 0 W/m -0,6 C 0,1 C 1,6 km/h (1 Bft)
17.02.2020 01:58 22,1 C 0,1 C 55 % 95 % 1020,2 hPa 0,0 l/m 1,6 km/h (1 Bft) W 270 0 min 0,000 mm 0,0 UV-I 0 W/m -0,6 C 0,1 C 1,6 km/h (1 Bft)
17.02.2020 01:57 22,1 C 0,1 C 55 % 95 % 1020,3 hPa 0,0 l/m 3,2 km/h (1 Bft) W 270 0 min 0,000 mm 0,0 UV-I 0 W/m -0,6 C 0,1 C 3,2 km/h (1 Bft)
17.02.2020 01:56 22,1 C 0,1 C 55 % 95 % 1020,3 hPa 0,0 l/m 1,6 km/h (1 Bft) W 270 0 min 0,000 mm 0,0 UV-I 0 W/m -0,6 C 0,1 C 3,2 km/h (1 Bft)
17.02.2020 01:55 22,1 C 0,0 C 55 % 95 % 1020,3 hPa 0,0 l/m 1,6 km/h (1 Bft) W 270 0 min 0,000 mm 0,0 UV-I 0 W/m -0,7 C 0,0 C 1,6 km/h (1 Bft)
17.02.2020 01:54 22,1 C 0,0 C 55 % 95 % 1020,3 hPa 0,0 l/m 1,6 km/h (1 Bft) W 270 0 min 0,000 mm 0,0 UV-I 0 W/m -0,7 C 0,0 C 1,6 km/h (1 Bft)
17.02.2020 01:53 22,1 C -0,1 C 55 % 95 % 1020,3 hPa 0,0 l/m 1,6 km/h (1 Bft) W 270 0 min 0,000 mm 0,0 UV-I 0 W/m -0,8 C -0,1 C 3,2 km/h (1 Bft)
17.02.2020 01:52 22,1 C -0,1 C 55 % 95 % 1020,3 hPa 0,0 l/m 1,6 km/h (1 Bft) W 270 0 min 0,000 mm 0,0 UV-I 0 W/m -0,8 C -0,1 C 1,6 km/h (1 Bft)
17.02.2020 01:51 22,1 C -0,1 C 55 % 95 % 1020,3 hPa 0,0 l/m 1,6 km/h (1 Bft) W 270 0 min 0,000 mm 0,0 UV-I 0 W/m -0,8 C -0,1 C 3,2 km/h (1 Bft)
17.02.2020 01:50 22,1 C -0,1 C 55 % 95 % 1020,3 hPa 0,0 l/m 1,6 km/h (1 Bft) W 270 0 min 0,000 mm 0,0 UV-I 0 W/m -0,8 C -0,1 C 3,2 km/h (1 Bft)
17.02.2020 01:49 22,1 C -0,1 C 55 % 95 % 1020,3 hPa 0,0 l/m 1,6 km/h (1 Bft) W 270 0 min 0,000 mm 0,0 UV-I 0 W/m -0,8 C -0,1 C 3,2 km/h (1 Bft)
17.02.2020 01:48 22,1 C -0,1 C 55 % 95 % 1020,2 hPa 0,0 l/m 1,6 km/h (1 Bft) W 270 0 min 0,000 mm 0,0 UV-I 0 W/m -0,8 C -0,1 C 3,2 km/h (1 Bft)
17.02.2020 01:47 22,1 C -0,1 C 55 % 95 % 1020,2 hPa 0,0 l/m 1,6 km/h (1 Bft) W 270 0 min 0,000 mm 0,0 UV-I 0 W/m -0,8 C -0,1 C 3,2 km/h (1 Bft)
17.02.2020 01:46 22,1 C -0,2 C 55 % 95 % 1020,2 hPa 0,0 l/m 1,6 km/h (1 Bft) W 270 0 min 0,000 mm 0,0 UV-I 0 W/m -0,9 C -0,2 C 3,2 km/h (1 Bft)
17.02.2020 01:45 22,1 C -0,2 C 55 % 94 % 1020,1 hPa 0,0 l/m 1,6 km/h (1 Bft) W 270 0 min 0,000 mm 0,0 UV-I 0 W/m -1,0 C -0,2 C 3,2 km/h (1 Bft)
17.02.2020 01:44 22,1 C -0,3 C 55 % 94 % 1020,1 hPa 0,0 l/m 3,2 km/h (1 Bft) W 270 0 min 0,000 mm 0,0 UV-I 0 W/m -1,1 C -0,3 C 3,2 km/h (1 Bft)
17.02.2020 01:43 22,1 C -0,3 C 55 % 94 % 1020,1 hPa 0,0 l/m 3,2 km/h (1 Bft) W 270 0 min 0,000 mm 0,0 UV-I 0 W/m -1,1 C -0,3 C 3,2 km/h (1 Bft)
17.02.2020 01:42 22,1 C -0,2 C 55 % 94 % 1020,2 hPa 0,0 l/m 3,2 km/h (1 Bft) W 270 0 min 0,000 mm 0,0 UV-I 0 W/m -1,0 C -0,2 C 3,2 km/h (1 Bft)
17.02.2020 01:41 22,1 C -0,2 C 55 % 94 % 1020,1 hPa 0,0 l/m 1,6 km/h (1 Bft) W 270 0 min 0,000 mm 0,0 UV-I 0 W/m -1,0 C -0,2 C 3,2 km/h (1 Bft)
17.02.2020 01:40 22,1 C -0,2 C 55 % 94 % 1020,1 hPa 0,0 l/m 1,6 km/h (1 Bft) W 270 0 min 0,000 mm 0,0 UV-I 0 W/m -1,0 C -0,2 C 1,6 km/h (1 Bft)
17.02.2020 01:39 22,1 C -0,1 C 55 % 94 % 1020,1 hPa 0,0 l/m 1,6 km/h (1 Bft) W 270 0 min 0,000 mm 0,0 UV-I 0 W/m -0,9 C -0,1 C 3,2 km/h (1 Bft)
17.02.2020 01:38 22,1 C 0,0 C 55 % 94 % 1020,1 hPa 0,0 l/m 0,0 km/h (0 Bft) W 270 0 min 0,000 mm 0,0 UV-I 0 W/m -0,8 C 0,0 C 1,6 km/h (1 Bft)
17.02.2020 01:37 22,1 C 0,1 C 55 % 94 % 1020,1 hPa 0,0 l/m 1,6 km/h (1 Bft) W 270 0 min 0,000 mm 0,0 UV-I 0 W/m -0,7 C 0,1 C 1,6 km/h (1 Bft)
17.02.2020 01:36 22,1 C 0,1 C 55 % 94 % 1020,1 hPa 0,0 l/m 1,6 km/h (1 Bft) W 270 0 min 0,000 mm 0,0 UV-I 0 W/m -0,7 C 0,1 C 1,6 km/h (1 Bft)
17.02.2020 01:35 22,1 C 0,2 C 55 % 94 % 1020,0 hPa 0,0 l/m 1,6 km/h (1 Bft) W 270 0 min 0,000 mm 0,0 UV-I 0 W/m -0,6 C 0,2 C 1,6 km/h (1 Bft)
17.02.2020 01:34 22,1 C 0,2 C 55 % 94 % 1020,0 hPa 0,0 l/m 0,0 km/h (0 Bft) W 270 0 min 0,000 mm 0,0 UV-I 0 W/m -0,6 C 0,2 C 1,6 km/h (1 Bft)
17.02.2020 01:33 22,1 C 0,2 C 55 % 94 % 1019,9 hPa 0,0 l/m 0,0 km/h (0 Bft) W 270 0 min 0,000 mm 0,0 UV-I 0 W/m -0,6 C 0,2 C 1,6 km/h (1 Bft)
17.02.2020 01:32 22,1 C 0,3 C 55 % 94 % 1019,9 hPa 0,0 l/m 0,0 km/h (0 Bft) N 0 0 min 0,000 mm 0,0 UV-I 0 W/m -0,5 C 0,3 C 0,0 km/h (0 Bft)
17.02.2020 01:31 22,1 C 0,4 C 55 % 95 % 1019,9 hPa 0,0 l/m 0,0 km/h (0 Bft) N 0 0 min 0,000 mm 0,0 UV-I 0 W/m -0,3 C 0,4 C 0,0 km/h (0 Bft)
17.02.2020 01:30 22,1 C 0,4 C 55 % 95 % 1019,9 hPa 0,0 l/m 0,0 km/h (0 Bft) W 270 0 min 0,000 mm 0,0 UV-I 0 W/m -0,3 C 0,4 C 1,6 km/h (1 Bft)
17.02.2020 01:29 22,1 C 0,4 C 55 % 95 % 1020,0 hPa 0,0 l/m 1,6 km/h (1 Bft) W 270 0 min 0,000 mm 0,0 UV-I 0 W/m -0,3 C 0,4 C 1,6 km/h (1 Bft)
17.02.2020 01:28 22,1 C 0,4 C 55 % 95 % 1019,9 hPa 0,0 l/m 1,6 km/h (1 Bft) W 270 0 min 0,000 mm 0,0 UV-I 0 W/m -0,3 C 0,4 C 3,2 km/h (1 Bft)
17.02.2020 01:27 22,1 C 0,4 C 55 % 95 % 1019,9 hPa 0,0 l/m 1,6 km/h (1 Bft) W-NW 292 0 min 0,000 mm 0,0 UV-I 0 W/m -0,3 C 0,4 C 3,2 km/h (1 Bft)
17.02.2020 01:26 22,1 C 0,4 C 55 % 95 % 1019,9 hPa 0,0 l/m 0,0 km/h (0 Bft) NW 315 0 min 0,000 mm 0,0 UV-I 0 W/m -0,3 C 0,4 C 1,6 km/h (1 Bft)
17.02.2020 01:25 22,1 C 0,4 C 55 % 95 % 1019,8 hPa 0,0 l/m 0,0 km/h (0 Bft) N 0 0 min 0,000 mm 0,0 UV-I 0 W/m -0,3 C 0,4 C 0,0 km/h (0 Bft)
17.02.2020 01:24 22,1 C 0,4 C 55 % 95 % 1019,9 hPa 0,0 l/m 0,0 km/h (0 Bft) N 0 0 min 0,000 mm 0,0 UV-I 0 W/m -0,3 C 0,4 C 0,0 km/h (0 Bft)
17.02.2020 01:23 22,1 C 0,3 C 55 % 95 % 1019,9 hPa 0,0 l/m 0,0 km/h (0 Bft) N 0 0 min 0,000 mm 0,0 UV-I 0 W/m -0,4 C 0,3 C 0,0 km/h (0 Bft)
17.02.2020 01:22 22,1 C 0,3 C 55 % 94 % 1019,9 hPa 0,0 l/m 0,0 km/h (0 Bft) N 0 0 min 0,000 mm 0,0 UV-I 0 W/m -0,5 C 0,3 C 0,0 km/h (0 Bft)
17.02.2020 01:21 22,1 C 0,3 C 55 % 94 % 1019,9 hPa 0,0 l/m 0,0 km/h (0 Bft) N 0 0 min 0,000 mm 0,0 UV-I 0 W/m -0,5 C 0,3 C 0,0 km/h (0 Bft)
17.02.2020 01:20 22,1 C 0,3 C 55 % 94 % 1019,8 hPa 0,0 l/m 0,0 km/h (0 Bft) NW 315 0 min 0,000 mm 0,0 UV-I 0 W/m -0,5 C 0,3 C 1,6 km/h (1 Bft)
17.02.2020 01:19 22,1 C 0,3 C 55 % 93 % 1019,8 hPa 0,0 l/m 1,6 km/h (1 Bft) NW 315 0 min 0,000 mm 0,0 UV-I 0 W/m -0,7 C 0,3 C 1,6 km/h (1 Bft)
17.02.2020 01:18 22,1 C 0,4 C 55 % 92 % 1019,7 hPa 0,0 l/m 0,0 km/h (0 Bft) N 0 0 min 0,000 mm 0,0 UV-I 0 W/m -0,7 C 0,4 C 0,0 km/h (0 Bft)
17.02.2020 01:17 22,1 C 0,6 C 55 % 92 % 1019,8 hPa 0,0 l/m 0,0 km/h (0 Bft) NW 315 0 min 0,000 mm 0,0 UV-I 0 W/m -0,5 C 0,6 C 1,6 km/h (1 Bft)
17.02.2020 01:16 22,1 C 0,8 C 55 % 93 % 1019,7 hPa 0,0 l/m 1,6 km/h (1 Bft) NW 315 0 min 0,000 mm 0,0 UV-I 0 W/m -0,2 C 0,8 C 3,2 km/h (1 Bft)
17.02.2020 01:15 22,1 C 1,1 C 55 % 95 % 1019,7 hPa 0,0 l/m 1,6 km/h (1 Bft) W 270 0 min 0,000 mm 0,0 UV-I 0 W/m 0,4 C 1,1 C 3,2 km/h (1 Bft)
17.02.2020 01:14 22,1 C 1,3 C 55 % 95 % 1019,7 hPa 0,0 l/m 1,6 km/h (1 Bft) W 270 0 min 0,000 mm 0,0 UV-I 0 W/m 0,6 C 1,3 C 3,2 km/h (1 Bft)
17.02.2020 01:13 22,1 C 1,3 C 55 % 95 % 1019,7 hPa 0,0 l/m 1,6 km/h (1 Bft) W 270 0 min 0,000 mm 0,0 UV-I 0 W/m 0,6 C 1,3 C 1,6 km/h (1 Bft)
17.02.2020 01:12 22,1 C 1,2 C 55 % 95 % 1019,6 hPa 0,0 l/m 1,6 km/h (1 Bft) W 270 0 min 0,000 mm 0,0 UV-I 0 W/m 0,5 C 1,2 C 3,2 km/h (1 Bft)
17.02.2020 01:11 22,1 C 0,9 C 55 % 94 % 1019,6 hPa 0,0 l/m 1,6 km/h (1 Bft) W 270 0 min 0,000 mm 0,0 UV-I 0 W/m 0,0 C 0,9 C 3,2 km/h (1 Bft)
17.02.2020 01:10 22,1 C 0,8 C 55 % 94 % 1019,6 hPa 0,0 l/m 1,6 km/h (1 Bft) W 270 0 min 0,000 mm 0,0 UV-I 0 W/m -0,1 C 0,8 C 1,6 km/h (1 Bft)
17.02.2020 01:09 22,1 C 0,9 C 55 % 94 % 1019,6 hPa 0,0 l/m 0,0 km/h (0 Bft) W 270 0 min 0,000 mm 0,0 UV-I 0 W/m 0,0 C 0,9 C 1,6 km/h (1 Bft)
17.02.2020 01:08 22,1 C 0,9 C 55 % 94 % 1019,6 hPa 0,0 l/m 0,0 km/h (0 Bft) N 0 0 min 0,000 mm 0,0 UV-I 0 W/m 0,0 C 0,9 C 0,0 km/h (0 Bft)
17.02.2020 01:07 22,1 C 0,9 C 55 % 94 % 1019,6 hPa 0,0 l/m 0,0 km/h (0 Bft) N 0 0 min 0,000 mm 0,0 UV-I 0 W/m 0,0 C 0,9 C 0,0 km/h (0 Bft)
17.02.2020 01:06 22,1 C 0,9 C 55 % 94 % 1019,6 hPa 0,0 l/m 0,0 km/h (0 Bft) N 0 0 min 0,000 mm 0,0 UV-I 0 W/m 0,0 C 0,9 C 0,0 km/h (0 Bft)
17.02.2020 01:05 22,1 C 0,9 C 55 % 94 % 1019,6 hPa 0,0 l/m 0,0 km/h (0 Bft) N 0 0 min 0,000 mm 0,0 UV-I 0 W/m 0,0 C 0,9 C 0,0 km/h (0 Bft)
17.02.2020 01:04 22,1 C 0,9 C 55 % 94 % 1019,5 hPa 0,0 l/m 0,0 km/h (0 Bft) N 0 0 min 0,000 mm 0,0 UV-I 0 W/m 0,0 C 0,9 C 0,0 km/h (0 Bft)
17.02.2020 01:03 22,1 C 0,9 C 55 % 94 % 1019,5 hPa 0,0 l/m 0,0 km/h (0 Bft) W 270 0 min 0,000 mm 0,0 UV-I 0 W/m 0,0 C 0,9 C 1,6 km/h (1 Bft)
17.02.2020 01:02 22,1 C 0,9 C 55 % 94 % 1019,6 hPa 0,0 l/m 0,0 km/h (0 Bft) N 0 0 min 0,000 mm 0,0 UV-I 0 W/m 0,0 C 0,9 C 0,0 km/h (0 Bft)
17.02.2020 01:01 22,1 C 0,9 C 55 % 94 % 1019,5 hPa 0,0 l/m 0,0 km/h (0 Bft) N 0 0 min 0,000 mm 0,0 UV-I 0 W/m 0,0 C 0,9 C 0,0 km/h (0 Bft)
17.02.2020 01:00 22,1 C 0,9 C 55 % 94 % 1019,5 hPa 0,0 l/m 0,0 km/h (0 Bft) N 0 0 min 0,000 mm 0,0 UV-I 0 W/m 0,0 C 0,9 C 0,0 km/h (0 Bft)
17.02.2020 00:59 22,1 C 0,9 C 55 % 94 % 1019,5 hPa 0,0 l/m 0,0 km/h (0 Bft) W 270 0 min 0,000 mm 0,0 UV-I 0 W/m 0,0 C 0,9 C 1,6 km/h (1 Bft)
17.02.2020 00:58 22,1 C 1,1 C 55 % 95 % 1019,6 hPa 0,0 l/m 1,6 km/h (1 Bft) W 270 0 min 0,000 mm 0,0 UV-I 0 W/m 0,4 C 1,1 C 1,6 km/h (1 Bft)
17.02.2020 00:57 22,1 C 1,1 C 55 % 95 % 1019,5 hPa 0,0 l/m 0,0 km/h (0 Bft) N 0 0 min 0,000 mm 0,0 UV-I 0 W/m 0,4 C 1,1 C 0,0 km/h (0 Bft)
17.02.2020 00:56 22,1 C 1,0 C 55 % 95 % 1019,5 hPa 0,0 l/m 0,0 km/h (0 Bft) N 0 0 min 0,000 mm 0,0 UV-I 0 W/m 0,3 C 1,0 C 0,0 km/h (0 Bft)
17.02.2020 00:55 22,1 C 0,9 C 55 % 94 % 1019,6 hPa 0,0 l/m 0,0 km/h (0 Bft) N 0 0 min 0,000 mm 0,0 UV-I 0 W/m 0,0 C 0,9 C 0,0 km/h (0 Bft)
17.02.2020 00:54 22,1 C 0,9 C 55 % 94 % 1019,5 hPa 0,0 l/m 0,0 km/h (0 Bft) N 0 0 min 0,000 mm 0,0 UV-I 0 W/m 0,0 C 0,9 C 0,0 km/h (0 Bft)
17.02.2020 00:53 22,1 C 0,8 C 55 % 94 % 1019,5 hPa 0,0 l/m 0,0 km/h (0 Bft) W 270 0 min 0,000 mm 0,0 UV-I 0 W/m -0,1 C 0,8 C 1,6 km/h (1 Bft)
17.02.2020 00:52 22,1 C 0,8 C 55 % 94 % 1019,5 hPa 0,0 l/m 1,6 km/h (1 Bft) W 270 0 min 0,000 mm 0,0 UV-I 0 W/m -0,1 C 0,8 C 3,2 km/h (1 Bft)
17.02.2020 00:51 22,1 C 0,9 C 55 % 94 % 1019,5 hPa 0,0 l/m 1,6 km/h (1 Bft) W 270 0 min 0,000 mm 0,0 UV-I 0 W/m 0,0 C 0,9 C 3,2 km/h (1 Bft)
17.02.2020 00:50 22,1 C 0,8 C 55 % 94 % 1019,4 hPa 0,0 l/m 1,6 km/h (1 Bft) W 270 0 min 0,000 mm 0,0 UV-I 0 W/m -0,1 C 0,8 C 1,6 km/h (1 Bft)
17.02.2020 00:49 22,1 C 0,9 C 55 % 94 % 1019,4 hPa 0,0 l/m 1,6 km/h (1 Bft) W 270 0 min 0,000 mm 0,0 UV-I 0 W/m 0,0 C 0,9 C 1,6 km/h (1 Bft)
17.02.2020 00:48 22,1 C 0,9 C 55 % 94 % 1019,4 hPa 0,0 l/m 1,6 km/h (1 Bft) W 270 0 min 0,000 mm 0,0 UV-I 0 W/m 0,0 C 0,9 C 1,6 km/h (1 Bft)
17.02.2020 00:47 22,1 C 1,1 C 55 % 94 % 1019,4 hPa 0,0 l/m 1,6 km/h (1 Bft) W 270 0 min 0,000 mm 0,0 UV-I 0 W/m 0,2 C 1,1 C 3,2 km/h (1 Bft)
17.02.2020 00:46 22,1 C 1,1 C 55 % 94 % 1019,4 hPa 0,0 l/m 1,6 km/h (1 Bft) W 270 0 min 0,000 mm 0,0 UV-I 0 W/m 0,2 C 1,1 C 1,6 km/h (1 Bft)
17.02.2020 00:45 22,1 C 1,1 C 55 % 94 % 1019,4 hPa 0,0 l/m 1,6 km/h (1 Bft) W 270 0 min 0,000 mm 0,0 UV-I 0 W/m 0,2 C 1,1 C 1,6 km/h (1 Bft)
17.02.2020 00:44 22,1 C 1,2 C 55 % 94 % 1019,4 hPa 0,0 l/m 1,6 km/h (1 Bft) W 270 0 min 0,000 mm 0,0 UV-I 0 W/m 0,3 C 1,2 C 1,6 km/h (1 Bft)
17.02.2020 00:43 22,1 C 1,2 C 55 % 94 % 1019,4 hPa 0,0 l/m 0,0 km/h (0 Bft) W 270 0 min 0,000 mm 0,0 UV-I 0 W/m 0,3 C 1,2 C 1,6 km/h (1 Bft)
17.02.2020 00:42 22,1 C 1,3 C 55 % 94 % 1019,4 hPa 0,0 l/m 0,0 km/h (0 Bft) W 270 0 min 0,000 mm 0,0 UV-I 0 W/m 0,4 C 1,3 C 1,6 km/h (1 Bft)
17.02.2020 00:41 22,1 C 1,3 C 55 % 95 % 1019,5 hPa 0,0 l/m 1,6 km/h (1 Bft) W 270 0 min 0,000 mm 0,0 UV-I 0 W/m 0,6 C 1,3 C 1,6 km/h (1 Bft)
17.02.2020 00:40 22,1 C 1,2 C 55 % 95 % 1019,4 hPa 0,0 l/m 1,6 km/h (1 Bft) W 270 0 min 0,000 mm 0,0 UV-I 0 W/m 0,5 C 1,2 C 1,6 km/h (1 Bft)
17.02.2020 00:39 22,1 C 1,2 C 55 % 94 % 1019,5 hPa 0,0 l/m 1,6 km/h (1 Bft) W 270 0 min 0,000 mm 0,0 UV-I 0 W/m 0,3 C 1,2 C 1,6 km/h (1 Bft)
17.02.2020 00:38 22,1 C 1,2 C 55 % 94 % 1019,5 hPa 0,0 l/m 0,0 km/h (0 Bft) W 270 0 min 0,000 mm 0,0 UV-I 0 W/m 0,3 C 1,2 C 1,6 km/h (1 Bft)
17.02.2020 00:37 22,1 C 1,2 C 55 % 94 % 1019,6 hPa 0,0 l/m 0,0 km/h (0 Bft) N 0 0 min 0,000 mm 0,0 UV-I 0 W/m 0,3 C 1,2 C 0,0 km/h (0 Bft)
17.02.2020 00:36 22,1 C 1,2 C 55 % 94 % 1019,6 hPa 0,0 l/m 0,0 km/h (0 Bft) N 0 0 min 0,000 mm 0,0 UV-I 0 W/m 0,3 C 1,2 C 0,0 km/h (0 Bft)
17.02.2020 00:35 22,1 C 1,2 C 55 % 94 % 1019,6 hPa 0,0 l/m 0,0 km/h (0 Bft) W 270 0 min 0,000 mm 0,0 UV-I 0 W/m 0,3 C 1,2 C 1,6 km/h (1 Bft)
17.02.2020 00:34 22,1 C 1,2 C 55 % 94 % 1019,6 hPa 0,0 l/m 1,6 km/h (1 Bft) W 270 0 min 0,000 mm 0,0 UV-I 0 W/m 0,3 C 1,2 C 1,6 km/h (1 Bft)
17.02.2020 00:33 22,1 C 1,2 C 55 % 94 % 1019,6 hPa 0,0 l/m 1,6 km/h (1 Bft) W 270 0 min 0,000 mm 0,0 UV-I 0 W/m 0,3 C 1,2 C 1,6 km/h (1 Bft)
17.02.2020 00:32 22,1 C 1,3 C 55 % 94 % 1019,5 hPa 0,0 l/m 0,0 km/h (0 Bft) W 270 0 min 0,000 mm 0,0 UV-I 0 W/m 0,4 C 1,3 C 1,6 km/h (1 Bft)
17.02.2020 00:31 22,1 C 1,3 C 55 % 94 % 1019,5 hPa 0,0 l/m 0,0 km/h (0 Bft) N 0 0 min 0,000 mm 0,0 UV-I 0 W/m 0,4 C 1,3 C 0,0 km/h (0 Bft)
17.02.2020 00:30 22,1 C 1,3 C 55 % 94 % 1019,5 hPa 0,0 l/m 0,0 km/h (0 Bft) N 0 0 min 0,000 mm 0,0 UV-I 0 W/m 0,4 C 1,3 C 0,0 km/h (0 Bft)
17.02.2020 00:29 22,1 C 1,3 C 55 % 94 % 1019,5 hPa 0,0 l/m 0,0 km/h (0 Bft) N 0 0 min 0,000 mm 0,0 UV-I 0 W/m 0,4 C 1,3 C 0,0 km/h (0 Bft)
17.02.2020 00:28 22,1 C 1,3 C 55 % 95 % 1019,5 hPa 0,0 l/m 0,0 km/h (0 Bft) N 0 0 min 0,000 mm 0,0 UV-I 0 W/m 0,6 C 1,3 C 0,0 km/h (0 Bft)
17.02.2020 00:27 22,1 C 1,3 C 55 % 94 % 1019,5 hPa 0,0 l/m 0,0 km/h (0 Bft) W 270 0 min 0,000 mm 0,0 UV-I 0 W/m 0,4 C 1,3 C 1,6 km/h (1 Bft)
17.02.2020 00:26 22,1 C 1,2 C 55 % 95 % 1019,4 hPa 0,0 l/m 1,6 km/h (1 Bft) W 270 0 min 0,000 mm 0,0 UV-I 0 W/m 0,5 C 1,2 C 1,6 km/h (1 Bft)
17.02.2020 00:25 22,1 C 1,2 C 55 % 95 % 1019,4 hPa 0,0 l/m 0,0 km/h (0 Bft) W 270 0 min 0,000 mm 0,0 UV-I 0 W/m 0,5 C 1,2 C 1,6 km/h (1 Bft)
17.02.2020 00:24 22,1 C 1,2 C 55 % 95 % 1019,5 hPa 0,0 l/m 0,0 km/h (0 Bft) W 270 0 min 0,000 mm 0,0 UV-I 0 W/m 0,5 C 1,2 C 1,6 km/h (1 Bft)
17.02.2020 00:23 22,1 C 1,2 C 55 % 94 % 1019,5 hPa 0,0 l/m 0,0 km/h (0 Bft) N 0 0 min 0,000 mm 0,0 UV-I 0 W/m 0,3 C 1,2 C 0,0 km/h (0 Bft)
17.02.2020 00:22 22,1 C 1,1 C 55 % 94 % 1019,4 hPa 0,0 l/m 0,0 km/h (0 Bft) N 0 0 min 0,000 mm 0,0 UV-I 0 W/m 0,2 C 1,1 C 0,0 km/h (0 Bft)
17.02.2020 00:21 22,1 C 1,1 C 55 % 94 % 1019,4 hPa 0,0 l/m 0,0 km/h (0 Bft) N 0 0 min 0,000 mm 0,0 UV-I 0 W/m 0,2 C 1,1 C 0,0 km/h (0 Bft)
17.02.2020 00:20 22,1 C 1,1 C 55 % 94 % 1019,4 hPa 0,0 l/m 0,0 km/h (0 Bft) W 270 0 min 0,000 mm 0,0 UV-I 0 W/m 0,2 C 1,1 C 1,6 km/h (1 Bft)
17.02.2020 00:19 22,1 C 1,1 C 55 % 94 % 1019,5 hPa 0,0 l/m 1,6 km/h (1 Bft) W 270 0 min 0,000 mm 0,0 UV-I 0 W/m 0,2 C 1,1 C 3,2 km/h (1 Bft)
17.02.2020 00:18 22,1 C 1,1 C 55 % 94 % 1019,5 hPa 0,0 l/m 1,6 km/h (1 Bft) W 270 0 min 0,000 mm 0,0 UV-I 0 W/m 0,2 C 1,1 C 3,2 km/h (1 Bft)
17.02.2020 00:17 22,1 C 1,1 C 55 % 94 % 1019,5 hPa 0,0 l/m 3,2 km/h (1 Bft) W 270 0 min 0,000 mm 0,0 UV-I 0 W/m 0,2 C 1,1 C 4,8 km/h (1 Bft)
17.02.2020 00:16 22,1 C 1,0 C 55 % 94 % 1019,5 hPa 0,0 l/m 4,8 km/h (1 Bft) W 270 0 min 0,000 mm 0,0 UV-I 0 W/m 0,1 C 1,0 C 4,8 km/h (1 Bft)
17.02.2020 00:15 22,1 C 0,9 C 55 % 94 % 1019,4 hPa 0,0 l/m 3,2 km/h (1 Bft) S-SW 202 0 min 0,000 mm 0,0 UV-I 0 W/m 0,0 C 0,9 C 4,8 km/h (1 Bft)
17.02.2020 00:14 22,1 C 0,9 C 55 % 94 % 1019,4 hPa 0,0 l/m 1,6 km/h (1 Bft) S-SW 202 0 min 0,000 mm 0,0 UV-I 0 W/m 0,0 C 0,9 C 3,2 km/h (1 Bft)
17.02.2020 00:13 22,1 C 1,0 C 55 % 94 % 1019,4 hPa 0,0 l/m 1,6 km/h (1 Bft) S-SW 202 0 min 0,000 mm 0,0 UV-I 0 W/m 0,1 C 1,0 C 3,2 km/h (1 Bft)
17.02.2020 00:12 22,1 C 1,1 C 55 % 94 % 1019,3 hPa 0,0 l/m 1,6 km/h (1 Bft) S-SW 202 0 min 0,000 mm 0,0 UV-I 0 W/m 0,2 C 1,1 C 3,2 km/h (1 Bft)
17.02.2020 00:11 22,1 C 1,1 C 55 % 93 % 1019,3 hPa 0,0 l/m 0,0 km/h (0 Bft) N 0 0 min 0,000 mm 0,0 UV-I 0 W/m 0,1 C 1,1 C 0,0 km/h (0 Bft)
17.02.2020 00:10 22,0 C 1,2 C 55 % 94 % 1019,2 hPa 0,0 l/m 0,0 km/h (0 Bft) N 0 0 min 0,000 mm 0,0 UV-I 0 W/m 0,3 C 1,2 C 0,0 km/h (0 Bft)
17.02.2020 00:09 22,1 C 1,2 C 55 % 93 % 1019,2 hPa 0,0 l/m 0,0 km/h (0 Bft) N 0 0 min 0,000 mm 0,0 UV-I 0 W/m 0,2 C 1,2 C 0,0 km/h (0 Bft)
17.02.2020 00:08 22,1 C 1,2 C 55 % 93 % 1019,2 hPa 0,0 l/m 0,0 km/h (0 Bft) N 0 0 min 0,000 mm 0,0 UV-I 0 W/m 0,2 C 1,2 C 0,0 km/h (0 Bft)
17.02.2020 00:07 22,1 C 1,2 C 55 % 92 % 1019,3 hPa 0,0 l/m 0,0 km/h (0 Bft) N 0 0 min 0,000 mm 0,0 UV-I 0 W/m 0,0 C 1,2 C 0,0 km/h (0 Bft)
17.02.2020 00:06 22,1 C 1,3 C 55 % 92 % 1019,3 hPa 0,0 l/m 0,0 km/h (0 Bft) N 0 0 min 0,000 mm 0,0 UV-I 0 W/m 0,1 C 1,3 C 0,0 km/h (0 Bft)
17.02.2020 00:05 22,1 C 1,4 C 55 % 91 % 1019,2 hPa 0,0 l/m 0,0 km/h (0 Bft) S-SW 202 0 min 0,000 mm 0,0 UV-I 0 W/m 0,1 C 1,4 C 1,6 km/h (1 Bft)
17.02.2020 00:04 22,1 C 1,7 C 55 % 92 % 1019,3 hPa 0,0 l/m 1,6 km/h (1 Bft) S-SW 202 0 min 0,000 mm 0,0 UV-I 0 W/m 0,5 C 1,7 C 1,6 km/h (1 Bft)
17.02.2020 00:03 22,1 C 1,8 C 55 % 92 % 1019,3 hPa 0,0 l/m 0,0 km/h (0 Bft) S-SW 202 0 min 0,000 mm 0,0 UV-I 0 W/m 0,6 C 1,8 C 1,6 km/h (1 Bft)
17.02.2020 00:02 22,1 C 1,9 C 55 % 93 % 1019,3 hPa 0,0 l/m 0,0 km/h (0 Bft) N 0 0 min 0,000 mm 0,0 UV-I 0 W/m 0,9 C 1,9 C 0,0 km/h (0 Bft)
17.02.2020 00:01 22,1 C 1,9 C 55 % 93 % 1019,3 hPa 0,0 l/m 0,0 km/h (0 Bft) N 0 0 min 0,000 mm 0,0 UV-I 0 W/m 0,9 C 1,9 C 0,0 km/h (0 Bft)
17.02.2020 00:00 22,1 C 2,0 C 55 % 93 % 1019,2 hPa 0,0 l/m 0,0 km/h (0 Bft) N 0 0 min 0,000 mm 0,0 UV-I 0 W/m 1,0 C 2,0 C 0,0 km/h (0 Bft)
_ Min-Zeit 05:05 04:05 00:00 00:05 00:00 - 00:00 - - - - - - 04:05 04:05 00:00
Minimum _ 21,9 C -1,0 C 55 % 91 % 1019,2 hPa - 0,0 km/h (0 Bft) - - - - - - -1,7 C -1,0 C 0,0 km/h (0 Bft)
_ Max-Zeit 00:00 00:00 05:20 02:23 05:26 00:00 05:25 - - 00:00 00:00 00:00 00:00 00:00 00:00 05:16
Maximum _ 22,1 C 2,0 C 56 % 96 % 1020,8 hPa 0,0 l/m 6,4 km/h
NW (2 Bft)
- - 0 min 0,000 mm 0,0 UV-I 0 W/m 1,0 C 2,0 C 8,0 km/h
W-SW (2 Bft)
Durchschnitt _ 22,1 C 0,1 C 55 % 95 % 1020,0 hPa #0,0 l/m 1,1 km/h (1 Bft) W - #0 min. #0,000 mm 0,0 UV-I 0 W/m -0,6 C 0,1 C 2,1 km/h (1 Bft)